Charlevoix, MI

12:57 PM EDT on May 24, 2017 (GMT -0400)
Charlevoix Municipal

Weather History for KCVX - October, 2012

Change the Weather History Date:

Monday, October 29, 2012

  Actual Average Record
Temperature  
Mean Temperature 42 °F -  
Max Temperature 45 °F 51 °F 62 °F (2004)
Min Temperature 39 °F 34 °F 26 °F (2002)
Degree Days  
Heating Degree Days 23    
Moisture  
Dew Point 27 °F    
Average Humidity 55    
Maximum Humidity 64    
Minimum Humidity 46    
Precipitation  
Precipitation 0.00 in - - ()
Sea Level Pressure  
Sea Level Pressure 30.25 in    
Wind  
Wind Speed 17 mph (NNE)    
Max Wind Speed 29 mph    
Max Gust Speed 40 mph    
Visibility 10 miles    
Events      
Averages and records for this station are not official NWS values.
T = Trace of Precipitation, MM = Missing Value Source: NWS Daily Summary

Daily Weather History Graph

Daily Weather History Graph

Search for Another Location

Airport or City:

Trip Planner

Search our weather history database for the weather conditions in past years. The results will help you decide how hot, cold, wet, or windy it might be!

Date:

Astronomy

Oct. 29, 2012 Rise Set
Actual Time 8:16 AM EDT 6:32 PM EDT
Civil Twilight 7:46 AM EDT 7:02 PM EDT
Nautical Twilight 7:11 AM EDT 7:37 PM EDT
Astronomical Twilight 6:37 AM EDT 8:11 PM EDT
Moon 6:21 PM EDT (10/29) 8:07 AM EDT (10/29)
Length of Visible Light 11h 16m
Length of Day
10h 15m
Full, 100% of the Moon is Illuminated
Oct 29
Full
Oct 29
Full
Nov 6
Last Quarter
Nov 13
New
Nov 20
First Quarter

Hourly Weather History & Observations

Time (EDT) Temp. Windchill Dew Point Humidity Pressure Visibility Wind Dir Wind Speed Gust Speed Precip Events Conditions
12:14 AM 43.0 °F 35.1 °F 31.6 °F 64% 30.31 in 10.0 mi NNE 17.3 mph - N/A   Mostly Cloudy
12:53 AM 43.2 °F 35.9 °F 31.1 °F 62% 30.31 in 10.0 mi NNE 15.0 mph 24.2 mph N/A   Mostly Cloudy
1:14 AM 42.6 °F 35.6 °F 28.8 °F 58% 30.31 in 10.0 mi NNE 13.8 mph 20.7 mph N/A   Scattered Clouds
1:33 AM 41.9 °F 35.9 °F 27.9 °F 58% 30.31 in 10.0 mi NNE 10.4 mph - N/A   Clear
1:54 AM 41.2 °F 35.5 °F 26.4 °F 56% 30.31 in 10.0 mi NE 9.2 mph 20.7 mph N/A   Clear
2:13 AM 41.0 °F 33.9 °F 25.3 °F 54% 30.30 in 10.0 mi NNE 12.7 mph 17.3 mph N/A   Clear
2:34 AM 41.0 °F 33.9 °F 25.3 °F 54% 30.30 in 10.0 mi NNE 12.7 mph 19.6 mph N/A   Clear
2:54 AM 41.0 °F 33.9 °F 25.5 °F 54% 30.30 in 10.0 mi NNE 12.7 mph 18.4 mph N/A   Clear
3:14 AM 40.8 °F 32.9 °F 26.2 °F 56% 30.30 in 10.0 mi NNE 15.0 mph 19.6 mph N/A   Clear
3:34 AM 40.8 °F 34.1 °F 27.0 °F 58% 30.30 in 10.0 mi NNE 11.5 mph 20.7 mph N/A   Clear
3:54 AM 40.3 °F 33.4 °F 27.0 °F 59% 30.30 in 10.0 mi NNE 11.5 mph - N/A   Clear
4:14 AM 40.3 °F 33.4 °F 27.3 °F 60% 30.30 in 10.0 mi NE 11.5 mph - N/A   Clear
4:34 AM 39.6 °F 32.1 °F 25.9 °F 58% 30.30 in 10.0 mi NE 12.7 mph - N/A   Clear
4:54 AM 39.4 °F 31.8 °F 25.5 °F 58% 30.30 in 10.0 mi NE 12.7 mph 17.3 mph N/A   Clear
5:14 AM 39.6 °F 32.5 °F 25.7 °F 58% 30.30 in 10.0 mi NNE 11.5 mph 20.7 mph N/A   Clear
5:34 AM 40.1 °F 32.0 °F 26.6 °F 59% 30.31 in 10.0 mi NNE 15.0 mph 18.4 mph N/A   Clear
5:54 AM 40.3 °F 31.6 °F 26.1 °F 57% 30.30 in 10.0 mi NNE 17.3 mph 21.9 mph N/A   Clear
6:13 AM 40.1 °F 31.6 °F 26.8 °F 59% 30.30 in 10.0 mi North 16.1 mph 21.9 mph N/A   Clear
6:54 AM 40.5 °F 31.8 °F 27.3 °F 59% 30.30 in 10.0 mi NNE 17.3 mph 25.3 mph N/A   Clear
7:14 AM 40.6 °F 31.7 °F 27.7 °F 60% 30.31 in 10.0 mi NNE 18.4 mph 25.3 mph N/A   Clear
7:34 AM 41.0 °F 32.2 °F 28.0 °F 60% 30.30 in 10.0 mi NNE 18.4 mph 26.5 mph N/A   Clear
7:54 AM 41.0 °F 31.6 °F 27.1 °F 58% 30.30 in 10.0 mi North 20.7 mph 25.3 mph N/A   Clear
8:14 AM 41.0 °F 31.9 °F 27.3 °F 58% 30.31 in 10.0 mi NNE 19.6 mph 26.5 mph N/A   Clear
8:34 AM 41.0 °F 32.8 °F 27.9 °F 60% 30.31 in 10.0 mi NNE 16.1 mph 24.2 mph N/A   Clear
8:54 AM 41.0 °F 32.2 °F 27.3 °F 58% 30.31 in 10.0 mi NNE 18.4 mph 25.3 mph N/A   Clear
9:14 AM 41.2 °F 32.4 °F 26.1 °F 55% 30.32 in 10.0 mi NNE 18.4 mph 27.6 mph N/A   Clear
9:33 AM 41.2 °F 32.7 °F 27.3 °F 58% 30.32 in 10.0 mi NNE 17.3 mph 25.3 mph N/A   Clear
9:54 AM 41.2 °F 32.1 °F 27.9 °F 59% 30.31 in 10.0 mi North 19.6 mph 29.9 mph N/A   Clear
10:13 AM 41.0 °F 32.2 °F 28.0 °F 60% 30.31 in 10.0 mi NNE 18.4 mph 24.2 mph N/A   Clear
10:34 AM 41.0 °F 32.5 °F 27.9 °F 60% 30.31 in 10.0 mi NNE 17.3 mph 26.5 mph N/A   Clear
10:54 AM 41.2 °F 32.7 °F 26.1 °F 55% 30.31 in 10.0 mi North 17.3 mph 27.6 mph N/A   Clear
11:13 AM 41.5 °F 33.8 °F 28.8 °F 60% 30.30 in 10.0 mi North 15.0 mph 23.0 mph N/A   Clear
11:34 AM 41.9 °F 33.7 °F 28.0 °F 58% 30.30 in 10.0 mi NNE 17.3 mph 26.5 mph N/A   Clear
11:54 AM 41.9 °F 33.4 °F 28.2 °F 58% 30.29 in 10.0 mi NNE 18.4 mph 27.6 mph N/A   Clear
12:13 PM 42.4 °F 33.8 °F 28.6 °F 58% 30.29 in 10.0 mi North 19.6 mph 26.5 mph N/A   Clear
12:34 PM 42.4 °F 34.7 °F 28.6 °F 58% 30.29 in 10.0 mi NNE 16.1 mph 26.5 mph N/A   Clear
12:54 PM 42.8 °F 35.4 °F 30.0 °F 61% 30.28 in 10.0 mi North 15.0 mph 23.0 mph N/A   Clear
1:14 PM 43.0 °F 35.1 °F 30.6 °F 62% 30.27 in 10.0 mi North 17.3 mph 25.3 mph N/A   Clear
1:34 PM 43.2 °F 35.6 °F 30.2 °F 60% 30.27 in 10.0 mi North 16.1 mph 23.0 mph N/A   Clear
2:14 PM 43.9 °F 36.2 °F 29.5 °F 57% 30.26 in 10.0 mi North 17.3 mph 24.2 mph N/A   Clear
2:34 PM 44.1 °F 37.1 °F 29.3 °F 56% 30.25 in 10.0 mi North 15.0 mph 25.3 mph N/A   Clear
2:54 PM 44.2 °F 37.0 °F 26.6 °F 50% 30.25 in 10.0 mi North 16.1 mph 24.2 mph N/A   Clear
3:14 PM 44.6 °F 37.4 °F 25.5 °F 47% 30.24 in 10.0 mi North 16.1 mph 25.3 mph N/A   Clear
3:34 PM 45.0 °F 37.1 °F 25.0 °F 46% 30.24 in 10.0 mi North 19.6 mph 27.6 mph N/A   Clear
3:53 PM 45.1 °F 37.9 °F 25.7 °F 47% 30.23 in 10.0 mi North 17.3 mph 25.3 mph N/A   Clear
4:14 PM 45.1 °F 37.9 °F 25.3 °F 46% 30.23 in 10.0 mi North 17.3 mph 25.3 mph N/A   Clear
4:34 PM 45.1 °F 37.6 °F 26.6 °F 48% 30.22 in 10.0 mi North 18.4 mph 27.6 mph N/A   Clear
4:53 PM 45.0 °F 37.4 °F 25.9 °F 47% 30.22 in 10.0 mi North 18.4 mph 25.3 mph N/A   Clear
5:14 PM 44.8 °F 36.9 °F 26.4 °F 49% 30.21 in 10.0 mi North 19.6 mph 26.5 mph N/A   Clear
5:34 PM 44.6 °F 36.6 °F 25.3 °F 47% 30.21 in 10.0 mi North 19.6 mph 28.8 mph N/A   Clear
5:53 PM 44.6 °F 36.4 °F 26.8 °F 50% 30.20 in 10.0 mi North 20.7 mph 33.4 mph N/A   Clear
6:14 PM 44.1 °F 34.8 °F 25.3 °F 48% 30.20 in 10.0 mi North 25.3 mph 34.5 mph N/A   Clear
6:34 PM 43.9 °F 35.0 °F 25.5 °F 48% 30.19 in 10.0 mi North 23.0 mph 32.2 mph N/A   Clear
6:54 PM 43.9 °F 34.1 °F 26.4 °F 50% 30.19 in 10.0 mi North 27.6 mph 36.8 mph N/A   Clear
7:13 PM 43.7 °F 34.3 °F 26.1 °F 50% 30.19 in 10.0 mi North 25.3 mph 34.5 mph N/A   Clear
7:34 PM 43.7 °F 33.9 °F 26.4 °F 51% 30.18 in 10.0 mi North 27.6 mph 34.5 mph N/A   Clear
7:54 PM 43.7 °F 34.1 °F 25.7 °F 49% 30.18 in 10.0 mi North 26.5 mph 35.7 mph N/A   Clear
8:14 PM 43.9 °F 35.0 °F 26.4 °F 50% 30.17 in 10.0 mi North 23.0 mph 36.8 mph N/A   Clear
8:34 PM 43.9 °F 34.7 °F 26.8 °F 51% 30.17 in 10.0 mi North 24.2 mph 36.8 mph N/A   Clear
8:54 PM 43.7 °F 34.5 °F 25.7 °F 49% 30.17 in 10.0 mi North 24.2 mph 34.5 mph N/A   Clear
9:13 PM 43.7 °F 33.9 °F 24.8 °F 47% 30.16 in 10.0 mi North 27.6 mph 35.7 mph N/A   Clear
9:34 PM 43.5 °F 34.0 °F 24.1 °F 46% 30.15 in 10.0 mi North 25.3 mph 40.3 mph N/A   Clear
9:53 PM 43.2 °F 33.4 °F 25.9 °F 51% 30.14 in 10.0 mi North 26.5 mph 35.7 mph N/A   Clear
10:14 PM 43.0 °F 33.1 °F 25.9 °F 51% 30.13 in 10.0 mi North 26.5 mph 34.5 mph N/A   Clear
10:33 PM 43.0 °F 32.9 °F 26.1 °F 51% 30.12 in 10.0 mi North 27.6 mph 36.8 mph N/A   Clear
10:54 PM 43.0 °F 33.3 °F 25.5 °F 50% 30.11 in 10.0 mi North 25.3 mph 36.8 mph N/A   Clear
11:14 PM 42.8 °F 32.5 °F 25.2 °F 50% 30.09 in 10.0 mi North 28.8 mph 36.8 mph N/A   Clear
11:34 PM 42.6 °F 32.2 °F 26.4 °F 53% 30.08 in 10.0 mi North 28.8 mph 36.8 mph N/A   Clear
11:54 PM 42.3 °F 32.6 °F 26.8 °F 54% 30.07 in 10.0 mi North 24.2 mph 33.4 mph N/A   Clear